Date String (YYYY-MM-DD hh:mm:ss) UTC,Instrument flags,Ambient pressure (hPa),Sample flow (lpm),Bypass flow (lpm),Sample temperature (°C),Ambient temperature (°C),ASC tube jacket temperature (°C),LED temperature (°C),Box temperature (°C),Sample RH (%),Span deviation,Mass concentration (μg/m³),Mass concentration (μg/m³),Mass concentration (μg/m³)
DateTimeUTC,F1_M11,P_M11,Q1_M11,Q2_M11,T1_M11,T2_M11,T3_M11,T4_M11,T5_M11,U1_M11,ZSPAN_M11,X0_M11,X2_M11,X1_M11
2022-03-24 03:00:00,,0825.7,5.00,0.00,23.4,22.3,00.0,32.4,25.1,06.7,0000.0,0004.08,0001.82,0001.30
2022-03-24 03:01:00,,0825.8,5.00,0.00,23.3,22.2,00.0,32.4,25.1,06.7,0000.0,0003.77,0001.79,0001.30
2022-03-24 03:02:00,,0825.8,5.00,0.00,23.3,22.2,00.0,32.4,25.0,06.7,0000.0,0003.99,0001.80,0001.31
2022-03-24 03:03:00,,0825.8,5.00,0.00,23.3,22.2,00.0,32.4,25.0,06.7,0000.0,0004.01,0001.79,0001.31
2022-03-24 03:04:00,,0825.8,5.02,0.00,23.3,22.2,00.0,32.4,25.0,06.7,0000.0,0004.20,0001.85,0001.31
2022-03-24 03:05:00,,0825.8,5.01,0.00,23.3,22.2,00.0,32.4,25.0,06.7,0000.0,0004.23,0001.85,0001.30
2022-03-24 03:06:00,,0825.9,4.99,0.00,23.3,22.2,00.0,32.4,25.0,06.7,0000.0,0004.26,0001.89,0001.31
2022-03-24 03:07:00,,0825.9,4.99,0.00,23.3,22.2,00.0,32.3,25.0,06.8,0000.0,0004.31,0001.92,0001.32
2022-03-24 03:08:00,,0825.9,5.00,0.00,23.3,22.2,00.0,32.3,25.0,06.8,0000.0,0004.38,0001.96,0001.32
2022-03-24 03:09:00,,0825.9,4.99,0.00,23.2,22.2,00.0,32.3,25.0,06.9,0000.0,0004.25,0001.97,0001.33
2022-03-24 03:10:00,,0825.9,4.99,0.00,23.2,22.2,00.0,32.3,25.0,07.0,0000.0,0004.45,0002.00,0001.34
2022-03-24 03:11:00,,0825.9,5.00,0.00,23.2,22.1,00.0,32.3,25.0,07.0,0000.0,0004.29,0002.00,0001.32
2022-03-24 03:12:00,,0825.9,5.00,0.00,23.2,22.2,00.0,32.3,24.9,07.0,0000.0,0004.35,0001.96,0001.30
2022-03-24 03:13:00,,0826.0,5.01,0.00,23.2,22.1,00.0,32.3,24.9,07.1,0000.0,0004.58,0001.96,0001.27
2022-03-24 03:14:00,,0826.0,5.00,0.00,23.2,22.1,00.0,32.3,24.9,07.1,0000.0,0005.23,0001.94,0001.25
2022-03-24 03:15:00,,0826.0,4.99,0.00,23.2,22.1,00.0,32.3,24.9,07.1,0000.0,0005.87,0001.89,0001.23
2022-03-24 03:16:00,,0826.0,5.00,0.00,23.2,22.1,00.0,32.3,24.9,07.1,0000.0,0007.77,0001.87,0001.23
2022-03-24 03:17:00,,0826.0,5.00,0.00,23.2,22.2,00.0,32.2,24.9,07.2,0000.0,0008.05,0001.85,0001.24
2022-03-24 03:18:00,,0826.0,5.00,0.00,23.2,22.2,00.0,32.2,24.9,07.2,0000.0,0008.22,0001.88,0001.26
2022-03-24 03:19:00,,0826.0,5.00,0.00,23.2,22.2,00.0,32.2,24.9,07.2,0000.0,0008.28,0001.88,0001.27
2022-03-24 03:20:00,,0826.0,5.01,0.00,23.2,22.2,00.0,32.2,24.9,07.2,0000.0,0008.55,0001.90,0001.25
2022-03-24 03:21:00,,0826.0,5.00,0.00,23.1,22.2,00.0,32.2,24.9,07.2,0000.0,0008.32,0001.84,0001.23
2022-03-24 03:22:00,,0826.0,5.00,0.00,23.1,22.2,00.0,32.2,24.9,07.2,0000.0,0008.36,0001.84,0001.22
2022-03-24 03:23:00,,0826.0,5.00,0.00,23.1,22.2,00.0,32.2,24.9,07.1,0000.0,0008.40,0001.86,0001.23
2022-03-24 03:24:00,,0826.0,4.99,0.00,23.1,22.2,00.0,32.2,24.9,07.1,0000.0,0008.58,0001.84,0001.24
2022-03-24 03:25:00,,0826.0,5.01,0.00,23.1,22.2,00.0,32.2,24.8,07.0,0000.0,0008.19,0001.82,0001.24
2022-03-24 03:26:00,,0826.0,5.01,0.00,23.1,22.2,00.0,32.2,24.9,07.0,0000.0,0008.19,0001.85,0001.25
2022-03-24 03:27:00,,0826.0,5.01,0.00,23.1,22.2,00.0,32.2,24.9,07.0,0000.0,0007.17,0001.91,0001.25
2022-03-24 03:28:00,,0826.0,5.01,0.00,23.1,22.2,00.0,32.2,24.9,07.0,0000.0,0006.73,0001.93,0001.23
2022-03-24 03:29:00,,0826.0,4.99,0.00,23.1,22.2,00.0,32.2,24.9,07.0,0000.0,0006.50,0001.91,0001.21
2022-03-24 03:30:00,,0826.0,5.00,0.00,23.1,22.1,00.0,32.1,24.9,07.0,0000.0,0006.23,0001.86,0001.18
2022-03-24 03:31:00,,0826.0,4.99,0.00,23.1,22.1,00.0,32.1,24.8,07.0,0000.0,0005.82,0001.85,0001.19
2022-03-24 03:32:00,,0826.0,5.00,0.00,23.1,22.1,00.0,32.1,24.8,07.1,0000.0,0005.63,0001.89,0001.19
2022-03-24 03:33:00,,0826.1,5.01,0.00,23.1,22.0,00.0,32.1,24.8,07.1,0000.0,0005.77,0001.94,0001.20
2022-03-24 03:34:00,,0826.0,4.99,0.00,23.1,22.0,00.0,32.1,24.8,07.1,0000.0,0006.05,0001.98,0001.19
2022-03-24 03:35:00,,0826.0,5.00,0.00,23.1,22.0,00.0,32.1,24.8,07.1,0000.0,0006.24,0002.02,0001.18
2022-03-24 03:36:00,,0826.0,5.00,0.00,23.1,22.0,00.0,32.1,24.8,07.1,0000.0,0006.41,0002.06,0001.18
2022-03-24 03:37:00,,0826.0,5.00,0.00,23.0,22.0,00.0,32.1,24.8,07.1,0000.0,0005.46,0002.01,0001.18
2022-03-24 03:38:00,,0826.0,4.99,0.00,23.0,22.0,00.0,32.1,24.8,07.1,0000.0,0005.31,0001.94,0001.18
2022-03-24 03:39:00,,0826.0,5.01,0.00,23.0,22.0,00.0,32.1,24.8,07.2,0000.0,0006.31,0001.98,0001.19
2022-03-24 03:40:00,,0826.0,5.00,0.00,23.0,22.1,00.0,32.1,24.8,07.2,0000.0,0006.38,0001.99,0001.18
2022-03-24 03:41:00,,0826.0,5.00,0.00,23.0,22.1,00.0,32.1,24.8,07.2,0000.0,0006.71,0001.99,0001.18
2022-03-24 03:42:00,,0826.0,5.00,0.00,23.0,22.1,00.0,32.0,24.7,07.1,0000.0,0007.69,0001.99,0001.17
2022-03-24 03:43:00,,0826.0,5.01,0.00,23.0,22.0,00.0,32.0,24.7,07.1,0000.0,0007.65,0001.99,0001.18
2022-03-24 03:44:00,,0825.9,5.00,0.00,23.0,22.0,00.0,32.0,24.7,07.1,0000.0,0007.64,0001.95,0001.19
2022-03-24 03:45:00,,0825.9,5.00,0.00,23.0,22.0,00.0,32.0,24.7,07.1,0000.0,0007.74,0001.90,0001.19
2022-03-24 03:46:00,,0825.9,5.00,0.00,23.0,21.9,00.0,32.0,24.7,07.1,0000.0,0006.96,0001.85,0001.22
2022-03-24 03:47:00,,0825.9,4.99,0.00,22.9,21.9,00.0,32.0,24.7,07.1,0000.0,0006.96,0001.88,0001.25
2022-03-24 03:48:00,,0825.8,5.00,0.00,22.9,21.9,00.0,32.0,24.7,07.1,0000.0,0007.18,0001.96,0001.26
2022-03-24 03:49:00,,0825.8,5.00,0.00,22.9,21.9,00.0,32.0,24.7,07.1,0000.0,0007.06,0002.01,0001.28
2022-03-24 03:50:00,,0825.9,5.00,0.00,22.9,21.9,00.0,32.0,24.7,07.1,0000.0,0005.79,0001.94,0001.28
2022-03-24 03:51:00,,0825.9,4.99,0.00,22.9,21.9,00.0,32.0,24.7,07.2,0000.0,0005.64,0001.93,0001.27
2022-03-24 03:52:00,,0825.9,5.00,0.00,22.9,21.9,00.0,32.0,24.6,07.2,0000.0,0005.17,0001.90,0001.28
2022-03-24 03:53:00,,0825.9,5.00,0.00,22.9,22.0,00.0,32.0,24.7,07.2,0000.0,0003.88,0001.90,0001.27
2022-03-24 03:54:00,,0825.9,5.00,0.00,22.9,21.9,00.0,32.0,24.7,07.2,0000.0,0003.89,0001.89,0001.25
2022-03-24 03:55:00,,0825.9,5.00,0.00,22.9,21.9,00.0,32.0,24.6,07.2,0000.0,0003.64,0001.86,0001.23
2022-03-24 03:56:00,,0825.9,5.00,0.00,22.9,21.9,00.0,31.9,24.6,07.1,0000.0,0003.27,0001.89,0001.23
2022-03-24 03:57:00,,0825.9,5.00,0.00,22.9,21.9,00.0,31.9,24.6,07.2,0000.0,0003.10,0001.86,0001.20
2022-03-24 03:58:00,,0825.9,5.00,0.00,22.8,21.8,00.0,31.9,24.5,07.3,0000.0,0002.93,0001.80,0001.18
2022-03-24 03:59:00,,0826.0,5.00,0.00,22.8,21.8,00.0,31.9,24.5,07.3,0000.0,0002.77,0001.72,0001.15
